Regional Weather Roundup
Issued by NWS Jackson, KY

Home | Current Version | Previous Version | Graphics & Text | Print | Product List | Glossary On
Versions: 1 2 3 4 5 6 7 8 9 10 11 12 13 14 15 16 17 18 19 20 21 22 23 24 25 26 27 28
000
ASUS43 KJKL 012010
RWRJKL

EAST KENTUCKY HOURLY WEATHER ROUNDUP
NATIONAL WEATHER SERVICE JACKSON KY
300 PM EST THU DEC 01 2016

NOTE: "FAIR" INDICATES FEW OR NO CLOUDS BELOW 12,000 FEET WITH
NO SIGNIFICANT WEATHER AND/OR OBSTRUCTIONS TO VISIBILITY.

* THESE REPORTS ARE NOT UNDER NWS QUALITY CONTROL AND MAY NOT
  REPORT WEATHER SUCH AS PRECIPITATION AND FOG.

KYZ079-080-083-085-087-088-110-112-115-119-120-012100
...EASTERN KENTUCKY...

CITY           SKY/WX    TMP DP  RH WIND       PRES   REMARKS
JACKSON        MOSUNNY   47  31  53 MISG      29.96S
LONDON         SUNNY     48  26  42 W12       29.99R
SOMERSET*      MOSUNNY   46  30  53 SW12G17   30.03R
MONTICELLO*    SUNNY     48  30  49 W20       30.03R
WILLIAMSBURG*  CLEAR     48  28  46 SW6       30.00R
MIDDLESBORO*   MOSUNNY   49  30  48 NW7       30.00R
HARLAN APT*    MOCLDY    46  30  53 W5        29.98R
PIKE CO APT*   PTSUNNY   45  30  55 W6        29.96R
BIG SANDY APT* MOCLDY    45  30  55 SW7       29.96R
MOREHEAD APT*  MOCLDY    46  28  49 SW13G22   29.97R
ASHLAND*       CLOUDY    46  30  53 W7        29.94S
$$

KYZ035-036-041-042-044-050-067-078-099-012100
...CENTRAL KENTUCKY...

CITY           SKY/WX    TMP DP  RH WIND       PRES   REMARKS
MT STERLING*   PTSUNNY   45  32  61 W7G16     29.98R
FLEMING/MASON* CLOUDY    44  29  57 W9        29.96R
DANVILLE*      MOSUNNY   45  30  57 W10G17    30.00R
LEXINGTON      MOSUNNY   46  28  49 W12       29.97R
FRANKFORT      MOSUNNY   48  28  46 SW14      29.96R
LOUISVILLE     MOSUNNY   50  25  37 W12       29.99R
LEBANON*         N/A     46  28  49 SW12      30.00R
GLASGOW*       SUNNY     48  30  50 W12G17    30.02F
BOWLING GREEN  SUNNY     49  28  44 W8        30.03F
$$

KYZ091>093-OHZ055-061-077-WVZ005-015-034-035-042-012100
...SOUTHERN OHIO/WEST VIRGINIA...

CITY           SKY/WX    TMP DP  RH WIND       PRES   REMARKS
COVINGTON      CLOUDY    44  28  53 W16       29.95R
COLUMBUS       CLOUDY    39  29  67 SW14G20   29.91R WCI  31
DAYTON         CLOUDY    38  28  67 W13       29.93R WCI  30
WILMINGTON     CLOUDY    39  27  62 W12       29.93R WCI  32
HUNTINGTON     CLOUDY    45  29  53 W13G21    29.95R
CHARLESTON     CLOUDY    43  28  55 SW13      29.94S
PINEVILLE*     PTSUNNY   45  26  46 MISG      29.98S
BECKLEY        CLOUDY    37  28  70 NW9       29.91R WCI  30
BLUEFIELD      MOSUNNY   38  28  67 W9G17     29.90R WCI  31
LOGAN CO APT*  CLOUDY    41  28  60 W3        29.93S
$$

VAZ002-007-008-TNZ017-027-036-066-071-012100
...SOUTHWEST VIRGINIA/EAST TENNESSEE...

CITY           SKY/WX    TMP DP  RH WIND       PRES   REMARKS
WISE*          MOSUNNY   43  28  56 SW9       29.94R
JONESVILLE*    MOCLDY    48  32  53 W6        30.00R
ABINGDON*      PTSUNNY   47  32  56 W9        29.94R
BRISTOL        PTSUNNY   47  31  53 W10       29.96R
MORRISTOWN*    MOCLDY    48  32  53 W10       29.98R
SEVIERVILLE*   CLEAR     52  30  43 W12       29.99S
KNOXVILLE      MOSUNNY   50  30  46 W10G21    30.00R
OAK RIDGE      SUNNY     53  26  35 VRB5      30.01S
CROSSVILLE     SUNNY     45  26  47 W14G20    30.01R
NASHVILLE      SUNNY     52  25  35 W8        30.05S
$$

...KEY TO REMARKS...
VSB - VISIBILITY IN MILES
WCI - WIND CHILL INDEX
HX  - HEAT INDEX

$$




USA.gov is the U.S. government's official web portal to all federal, state and local government web resources and services.